Location: Newark
(42.7133°N, 87.7910°W)
Time: 00:47:09
(UTC+00:00)

Vanguard 1 - Pass Details

Date: 23 September 2019
Orbit: 653 x 3830 km, 34.2° (Epoch: 20 October)

Event Time Altitude Azimuth Distance (km) Brightness Sun altitude
Rises 12:30:15 0° 280° (W) 7,764 14.0 8.5°
Reaches altitude 10° 12:36:20 10° 275° (W) 6,448 13.6 9.6°
Maximum altitude 12:53:22 42° 213° (SSW) 3,147 12.6 12.7°
Drops below altitude 10° 13:03:29 10° 147° (SSE) 3,906 14.0 14.5°
Sets 13:06:12 0° 139° (SE) 4,556 14.4 14.9°
